Other Surface Observations
Issued by NWS

Home | Current Version | Previous Version | Text Only | Print | Product List | Glossary On
Versions: 1 2 3 4 5 6 7 8 9 10 11 12 13 14 15 16 17 18 19 20 21 22 23 24 25 26 27 28 29 30 31 32 33 34 35 36 37 38 39 40 41 42 43 44 45 46 47 48 49 50
495
SXUS52 KTAE 181419
OSOTAE
OSOTAE
North Florida/South Alabama/Southwest Georgia Weather Roundup
National Weather Service Tallahassee Florida
1000 AM EDT WED OCT 18 2017

Note: "fair" indicates few or no clouds below 12,000 feet with no
significant weather and/or obstructions to visibility.

!FLZ017-115-028-034-025-181500
...North Florida...

CITY           SKY/WX    TMP DP  RH WIND       PRES   REMARKS
TALLAHASSEE    MOSUNNY   62  50  64 NE13      30.24R
APALACHICOLA   CLOUDY    61  53  75 NE9       30.21R
PERRY          NOT AVBL
CROSS CITY     SUNNY     66  57  73 NE13      30.24R
JACKSONVILLE   MOSUNNY   73  64  73 N10       30.20R
$$

!FLZ112-006-005-002-011-181500
...Florida Panhandle...

CITY           SKY/WX    TMP DP  RH WIND       PRES   REMARKS
MARIANNA       SUNNY     60  47  61 E10       30.25R
BONIFAY        NOT AVBL
PANAMA CITY NW FAIR      61  49  64 NE9       30.22S
TYNDALL AFB    SUNNY     61  49  64 E12       30.22S
TYND DRONE APT FAIR      60  51  70 NE8       30.22S
DE FUNIAK SPR  FAIR      56  45  65 NE12      30.26R
EGLIN AFB      SUNNY     61  44  55 NE10      30.23R
DESTIN         SUNNY     64  49  57 NE10G18   30.23R
HURLBURT       SUNNY     60  46  60 E10       30.22R
CRESTVIEW      SUNNY     57  47  69 E8        30.27R
PENSACOLA      SUNNY     61  46  57 VRB6      30.24R
$$

!ALZ063-066-181500
...South Alabama...

CITY           SKY/WX    TMP DP  RH WIND       PRES   REMARKS
DOTHAN         SUNNY     60  45  57 E15G21    30.30R
OZARK CAIRNS   SUNNY     56  46  69 NE9       30.27R
FT RUCKER HELI SUNNY     56  46  69 NE9       30.27R
RUCKER HELI 3  FAIR      56  46  66 E9        30.27R
RUCKER HELI 2  FAIR      58  44  60 E12       30.26R
FLORALA APT    SUNNY     57  46  66 E12       30.29R
ANDALUSIA      SUNNY     60  45  57 E9        30.27R
TROY           SUNNY     55  47  74 E7        30.29R
EUFALA         FAIR      59  47  64 NE6       30.29R
MOBILE         SUNNY     60  48  64 E10       30.25R
$$

!GAZ120>161-181500
...Southwest and South Central Georgia...

CITY           SKY/WX    TMP DP  RH WIND       PRES   REMARKS
THOMASVILLE    FAIR      63  48  59 E10       30.27R
BAINBRIDGE     SUNNY     63  52  67 NE12G18   30.26S
MOODY AFB      SUNNY     62  49  62 NE9       30.25R
VALDOSTA       MOSUNNY   61  50  67 NE12      30.25R
MOULTRIE       SUNNY     61  46  59 NE9       30.28R
BLAKELY        SUNNY     61  46  59 E8G17     30.29R
ALBANY         SUNNY     60  44  55 E13       30.31R
TIFTON         FAIR      60  47  62 E10       30.27S
FITZGERALD     FAIR      60  47  62 NE8       30.32S
CORDELE        FAIR      62  44  52 NE10      30.32R
AMERICUS       FAIR      57  39  51 E13       30.33R
HOMERVILLE     FAIR      61  50  67 NE6       30.26R
$$

!GMZ750-755-770-775-181500
...Coastal and Buoy Obs...

STATION/POSITION TIME  TEMP    WIND        PRES    VSBY  WAVE
                       AIR SEA DIR/SP/G                  HT/PER
                 (UTC) (F)     (DEG/KT/KT) (MB)    (MI)  (FT/S)
KEATON BEACH     1400   63      40/ 11/ 15 1022.4R
CEDAR KEY        1400   69      40/ 15/ 17 1021.2R
C TOWER          1400   69      70/ 22/ 24 1022.6R
APALACHICOLA BUO 1350   75 81   50/ 17/ 21 1020.1R         5/ 6
PANAMA CITY BUOY 1350   75 82   60/ 16/ 19 1020.5R         5/ 6
MOBILE BUOY      1400   76 82   60/ 14/ 17 1021.6
ORANGE BCH AL BU 1350   69 79   60/ 16/ 19 1022.7R         4/ 6
$$




USA.gov is the U.S. government's official web portal to all federal, state and local government web resources and services.